Regional Weather Roundup
Issued by NWS

Home | Current Version | Previous Version | Text Only | Print | Product List | Glossary Off
Versions: 1 2 3 4 5 6 7 8 9 10 11 12 13 14 15 16 17 18 19 20 21 22 23 24 25 26 27 28 29 30 31 32 33 34 35 36 37 38 39 40 41 42 43 44 45 46 47 48 49 50

000
ASUS43 KLOT 241509
RWRIL

ILLINOIS REGIONAL WEATHER ROUNDUP
NATIONAL WEATHER SERVICE CHICAGO/ROMEOVILLE IL
1000 AM CDT MON JUL 24 2017

NOTE: "FAIR" INDICATES FEW OR NO CLOUDS BELOW 12,000 FEET WITH NO
SIGNIFICANT WEATHER AND/OR OBSTRUCTIONS TO VISIBILITY.

* THESE STATIONS ARE NOT UNDER NWS QUALITY CONTROL. THEY ALSO MAY NOT
  REPORT WEATHER SUCH AS PRECIPITATION OR FOG.

ILZ001-002-007-009-015-016-024-241600-
NORTHWEST ILLINOIS

CITY           SKY/WX    TMP DP  RH WIND       PRES   REMARKS
MOLINE         CLOUDY    70  63  78 E8        30.03R
STERLING*      CLOUDY    70  63  78 E7        30.04R
SAVANNA*       PTSUNNY   70  60  71 NE8       30.05R
$$

ILZ003-004-008-010-011-017-018-241600-
NORTH CENTRAL ILLINOIS

CITY           SKY/WX    TMP DP  RH WIND       PRES   REMARKS
ROCKFORD       PTSUNNY   70  59  68 E9        30.05S
FREEPORT*      PTSUNNY   68  59  74 E8        30.07R
ROCHELLE*      CLOUDY    68  60  77 NE10      30.05R
DE KALB*       CLOUDY    68  61  78 NE9       30.05S
PERU*          CLOUDY   N/A N/A N/A NE8       30.04R
$$

ILZ005-006-012>014-019>023-241600-
NORTHEAST ILLINOIS

CITY           SKY/WX    TMP DP  RH WIND       PRES   REMARKS
CHICAGO-OHARE  PTSUNNY   71  57  61 NE15G22   30.02R
CHICAGO-MIDWAY PTSUNNY   72  59  63 N16       30.01R
AURORA         CLOUDY    71  61  70 NE9       30.03S
LANSING*       CLOUDY    71  58  63 N9        30.01R
JOLIET*        MOSUNNY   73  64  73 NE5       30.02R
WAUKEGAN       CLOUDY    67  57  70 NE15G25   30.03R
DUPAGE AIRPORT PTSUNNY   69  62  78 NE12      30.02S
WHEELING       CLOUDY    68  60  75 NE10G21   30.04R
MORRIS*        MOSUNNY   71  62  72 E8        30.01S
ROMEOVILLE*    CLOUDY    70  60  70 NE8       30.02S
NORTHERLY ISL    N/A     69  58  67 N8          N/A
$$

LMZ740>746-241600-
SOUTHERN LAKE MICHIGAN

STATION/POSITION SKY/WX   TEMP    WIND        PRES    VSBY  WAVE
                          AIR SEA DIR/SP/G                  HT/PER
                          (F)     (DEG/KT/KT) (MB)    (MI)  (FT/S)
SOUTHERN BUOY              66 70   20/ 17/ 21 1015.9          4/ 7
WILMETTE HARBOR            68 72   10/ 16/ 19   N/A           6/ 6
HARRISON CRIB              69      10/ 18/ 20   N/A
BURNHAM HARBOR             69                   N/A
CALUMET HARBOR             70     360/ 11/ 16 1015.8R
BURNS HARBOR               69      30/ 14/ 19 1015.9R
MICHIGAN CITY              68      10/ 17/ 19   N/A
MICHIGAN CITY 6N           69 74   40/ 16/ 19   N/A           6/ 6
ST. JOSEPH                 68 73   50/ 14/ 19 1015.8R         5/ 7
$$

ILZ025>027-034>036-040-047-049-050-058-095>099-241600-
WEST-CENTRAL ILLINOIS

CITY           SKY/WX    TMP DP  RH WIND       PRES   REMARKS
QUINCY         SUNNY     78  62  57 CALM      30.00F HX  80
GALESBURG*     CLOUDY    72  65  80 NE6       30.04R
MACOMB*        CLOUDY    68  67  95 E6        30.04S FOG
JACKSONVILLE*  SUNNY     76  65  68 CALM      29.99S
PITTSFIELD*    SUNNY     77  67  70 N6        30.01F
$$

ILZ028>032-037-038-041>044-048-051>054-059>061-241600-
CENTRAL ILLINOIS

CITY           SKY/WX    TMP DP  RH WIND       PRES   REMARKS
PONTIAC        CLOUDY    70  67  91 N7        30.03R
BLOOMINGTON    CLOUDY    70  65  84 NE14      30.02S
DECATUR        CLOUDY    75  68  78 E7        29.99S
PEORIA         CLOUDY    69  66  90 NE8       30.02R
LACON*         CLOUDY    68  64  85 E7        30.02S
LINCOLN*       CLOUDY    73  69  87 NE6       30.00R
SPRINGFIELD    SUNNY     79  70  74 NE5       29.99S HX  82
TAYLORVILLE    SUNNY     78  67  68 E7        29.98F HX  80
$$

ILZ033-039-045-046-055>057-062-063-241600-
EAST-CENTRAL ILLINOIS

CITY           SKY/WX    TMP DP  RH WIND       PRES   REMARKS
CHAMPAIGN      CLOUDY    75  68  78 E8        30.00S
RANTOUL*       CLOUDY    73  67  80 NE8       30.00R
MATTOON        MOSUNNY   76  70  82 NE12      29.97S
PARIS*         MOSUNNY   74  69  83 N8        29.99S
$$

ILZ079-100>102-241600-
SOUTHWEST ILLINOIS

CITY           SKY/WX    TMP DP  RH WIND       PRES   REMARKS
ALTON          SUNNY     77  70  78 NW6       29.98S
BELLEVILLE     SUNNY     80  70  70 N5        29.98R HX  83
CAHOKIA*       SUNNY     82  66  58 NE8       29.97R HX  84
SPARTA*        SUNNY     80  70  70 N6        29.97F HX  83
$$

ILZ064>066-069>071-074>076-080>082-084>086-088>090-092>094-241600-
SOUTH-CENTRAL ILLINOIS

CITY           SKY/WX    TMP DP  RH WIND       PRES   REMARKS
CARBONDALE     SUNNY     81  75  82 CALM      29.95S HX  87
CAIRO*         PTSUNNY   80  74  81 S5        29.95S HX  85
EFFINGHAM*     SUNNY     78  69  74 NE3       29.98S HX  80
MARION         MOSUNNY   82  77  83 NW6       29.95F HX  91
MT. VERNON     SUNNY     82  68  62 NE5       29.96R HX  85
CENTRALIA*     SUNNY     81  70  70 NE5       29.95F HX  84
SALEM*         SUNNY     81  69  65 N6        29.96S HX  84
METROPOLIS*    MOSUNNY   80  74  82 SW3       29.96S HX  85
$$

ILZ067-068-072-073-078-083-087-091-241600-
SOUTHEAST ILLINOIS

CITY           SKY/WX    TMP DP  RH WIND       PRES   REMARKS
LAWRENCEVILLE  SUNNY     80  71  74 VRB6      29.95S HX  84
FLORA*         SUNNY     81  72  73 N6        29.96S HX  85
FAIRFIELD*     SUNNY     81  70  70 N3        29.94S HX  84
HARRISBURG*    SUNNY     83  73  72 CALM      29.95S HX  89
ROBINSON*      SUNNY     76  70  80 CALM      29.96S
CARMI*         SUNNY     81  74  81 N3        29.94S HX  86
$$

ABBREVIATIONS USED IN REMARKS
   TC - TEMPERATURE IN CELSIUS
  WCI - WIND CHILL INDEX
   HX - HEAT INDEX
  VSB - VISIBILITY
$$




USA.gov is the U.S. government's official web portal to all federal, state and local government web resources and services.